TimeEST,TemperatureF,Dew PointF,Humidity,Sea Level PressureIn,VisibilityMPH,Wind Direction,Wind SpeedMPH,Gust SpeedMPH,PrecipitationIn,Events,Conditions,WindDirDegrees,DateUTC
12:54 AM,45.0,34.0,65,30.07,10.0,Calm,Calm,-,N/A,,Overcast,0,2012-12-24 05:54:00
1:54 AM,48.0,33.1,56,30.06,2.5,Calm,Calm,-,N/A,,Haze,0,2012-12-24 06:54:00
2:02 AM,48.2,33.8,58,30.06,10.0,SSW,3.5,-,N/A,,Mostly Cloudy,200,2012-12-24 07:02:00
2:54 AM,46.9,33.1,59,30.05,10.0,South,4.6,-,N/A,,Scattered Clouds,190,2012-12-24 07:54:00
3:54 AM,46.9,34.0,61,30.04,10.0,South,4.6,-,N/A,,Overcast,190,2012-12-24 08:54:00
4:54 AM,48.0,33.1,56,30.04,10.0,SW,8.1,-,N/A,,Overcast,220,2012-12-24 09:54:00
5:54 AM,48.0,33.1,56,30.04,10.0,SSW,3.5,-,N/A,,Overcast,200,2012-12-24 10:54:00
6:54 AM,48.0,34.0,58,30.04,10.0,Calm,Calm,-,N/A,,Overcast,0,2012-12-24 11:54:00
7:54 AM,46.0,36.0,68,30.05,10.0,Calm,Calm,-,N/A,,Mostly Cloudy,0,2012-12-24 12:54:00
8:54 AM,48.0,36.0,63,30.05,10.0,South,3.5,-,N/A,,Overcast,180,2012-12-24 13:54:00
9:54 AM,50.0,36.0,59,30.06,10.0,SSW,4.6,-,N/A,,Mostly Cloudy,200,2012-12-24 14:54:00
10:54 AM,53.1,35.1,50,30.05,10.0,SSW,5.8,-,N/A,,Scattered Clouds,200,2012-12-24 15:54:00
11:54 AM,55.0,34.0,45,30.01,10.0,SSW,4.6,-,N/A,,Clear,200,2012-12-24 16:54:00
12:54 PM,55.9,34.0,44,29.98,10.0,SSW,5.8,-,N/A,,Clear,200,2012-12-24 17:54:00
1:54 PM,57.0,35.1,44,29.97,10.0,SW,4.6,-,N/A,,Mostly Cloudy,220,2012-12-24 18:54:00
2:54 PM,55.9,35.1,45,29.96,10.0,SW,4.6,-,N/A,,Overcast,220,2012-12-24 19:54:00
3:54 PM,53.1,37.9,57,29.96,8.0,SSW,3.5,-,0.00,Rain,Light Rain,210,2012-12-24 20:54:00
4:54 PM,50.0,43.0,77,29.95,7.0,South,3.5,-,0.02,Rain,Light Rain,190,2012-12-24 21:54:00
5:54 PM,48.0,46.9,96,29.95,9.0,Calm,Calm,-,0.03,,Overcast,0,2012-12-24 22:54:00
6:54 PM,48.0,43.0,83,29.94,10.0,SW,3.5,-,0.01,,Scattered Clouds,220,2012-12-24 23:54:00
7:54 PM,48.9,43.0,80,29.94,10.0,SW,4.6,-,N/A,,Overcast,220,2012-12-25 00:54:00
8:54 PM,48.0,45.0,89,29.93,10.0,Calm,Calm,-,N/A,,Overcast,0,2012-12-25 01:54:00
9:54 PM,45.0,44.1,97,29.94,10.0,South,3.5,-,N/A,,Partly Cloudy,180,2012-12-25 02:54:00
10:41 PM,46.4,44.6,93,29.96,10.0,WNW,3.5,-,N/A,,Overcast,290,2012-12-25 03:41:00
10:54 PM,46.9,45.0,93,29.96,10.0,Calm,Calm,-,N/A,,Overcast,0,2012-12-25 03:54:00
11:18 PM,46.4,44.6,93,29.95,10.0,Calm,Calm,-,N/A,,Overcast,0,2012-12-25 04:18:00
11:50 PM,48.2,44.6,87,29.95,10.0,Calm,Calm,-,N/A,,Overcast,0,2012-12-25 04:50:00
11:54 PM,48.0,45.0,89,29.95,10.0,Calm,Calm,-,N/A,,Overcast,0,2012-12-25 04:54:00